This is the latest recevied weather packets stored in our database for station/object KN4MGS. If no packets are shown the sender has not sent any weather packets the latest 10 day(s).
| Time | Temp. | Humidity | Pressure | Rain* | Wind** | Luminosity | Snow |
|---|---|---|---|---|---|---|---|
| 1777552522 | 15° C | 99% | 1015.9 hPa | 0 mm | - | 35 W/m² | - |
| 1777552218 | 15° C | 99% | 1015.6 hPa | 0 mm | - | 35 W/m² | - |
| 1777551915 | 15° C | 99% | 1015.5 hPa | 0 mm | - | 35 W/m² | - |
| 1777551613 | 15° C | 99% | 1015.5 hPa | 0 mm | - | 31 W/m² | - |
| 1777551310 | 15° C | 99% | 1015.2 hPa | 0 mm | - | 29 W/m² | - |
| 1777551007 | 15° C | 99% | 1015.3 hPa | 0 mm | - | 24 W/m² | - |
| 1777550704 | 15° C | 99% | 1015.6 hPa | 0 mm | - | 17 W/m² | - |
| 1777550400 | 15° C | 99% | 1015.3 hPa | 0 mm | - | 19 W/m² | - |
| 1777550096 | 15° C | 99% | 1015.5 hPa | 0 mm | - | 22 W/m² | - |
| 1777549793 | 15° C | 99% | 1015.1 hPa | 0 mm | - | 20 W/m² | - |
| 1777549489 | 15° C | 99% | 1015.2 hPa | 0 mm | - | 20 W/m² | - |
| 1777549185 | 15° C | 99% | 1015.2 hPa | 0 mm | - | 19 W/m² | - |
| 1777548882 | 15° C | 99% | 1015.3 hPa | 0 mm | - | 16 W/m² | - |
| 1777548578 | 15° C | 98% | 1015.5 hPa | 0 mm | - | 10 W/m² | - |
| 1777548275 | 15° C | 98% | 1015 hPa | 0 mm | - | 15 W/m² | - |
| 1777547972 | 15° C | 97% | 1014.7 hPa | 0 mm | - | 10 W/m² | - |
| 1777547668 | 15° C | 97% | 1014.8 hPa | 0 mm | - | 7 W/m² | - |
| 1777547364 | 15° C | 95% | 1014 hPa | 0 mm | - | 5 W/m² | - |
| 1777547063 | 15.56° C | 94% | 1013.9 hPa | 0 mm | - | 3 W/m² | - |
| 1777546760 | 15.56° C | 93% | 1013.9 hPa | 0 mm | - | 2 W/m² | - |
| 1777546456 | 15.56° C | 92% | 1013.7 hPa | 0 mm | - | 0 W/m² | - |
| 1777546153 | 15° C | 93% | 1013.6 hPa | 0 mm | - | 0 W/m² | - |
| 1777545849 | 15° C | 93% | 1013.6 hPa | 0 mm | - | 0 W/m² | - |
| 1777545546 | 15.56° C | 93% | 1013.5 hPa | 0 mm | - | 0 W/m² | - |
| 1777545243 | 15° C | 94% | 1013.2 hPa | 0 mm | - | 0 W/m² | - |
* Rain latest hour (hover to see other rain measurements)
** Current wind speed in m/s (hover to see current wind gust speed)